"Pseudo-MPEC" for P10OaqH

Created 2019 Jun 15 19:09:05 UT using Find_Orb

Click here for an explanation of pseudo-MPECs

 
 Astrometry: 
     P10OaqH  C2019 05 27BM*12xK3xB_qTYbp)h:%]\anagV40v07u#XG7WiP(wdDmm3aLpwhF51
     P10OaqH  C2019 05 27y)_/=p_(-f#exJ/mAstrometry,kjp6^credacted;#yjMwXFPa+F51
     P10OaqH  C2019 05 27`Y!EacedclickNi*M\jsMa/e$fdn9a_lhkR!FQb/=7here5oubRfF51
     P10OaqH  C2019 05 29.26418 12 19 32.25 +15 58 51.1    ~5TD9 21.6 GVNEOCPV06
     P10OaqH  C2019 05 29.27374 12 19 32.22 +15 58 49.0    ~5TD9 21.5 GVNEOCPV06
     P10OaqH  C2019 05 29.28884 12 19 32.13 +15 58 44.9    ~5TD9       VNEOCPV06
     P10OaqH ^C2019 06 07.36024112 19 02.743+15 15 39.39   ~67Jq 21.88GVNEOCP568
     P10OaqH ^C2019 06 07.36142212 19 02.742+15 15 39.04   ~67Jq 21.82GVNEOCP568
     P10OaqH ^C2019 06 07.36260612 19 02.743+15 15 38.66   ~67Jq 21.80GVNEOCP568
     P10OaqH ^C2019 06 13[Y'Dx+0bT$$ZcpT#US?dJFV_oQ!=7ZD6X*u8$yLhIOvK,QXLp]LL695
     P10OaqH ^C2019 06 13BAWxCOforjWM61ZexplanationeI_v'g%#l1/J7Y-c_*+\(EL_s,695
     P10OaqH ^C2019 06 13O^g:.LX^-EcdktspfRWOka4.xp-$VZ1+?RM$X1eXNOI#?h/wr!8`695

Station data:
(568) Mauna Kea  (N19.826116 W155.472200)  US/Hawaii.
(695) Kitt Peak  (N31.958398 W111.594670)  US/Arizona.
(F51) Pan-STARRS 1, Haleakala  (N20.707235 W156.255910)  US/Hawaii.
   Observers N. Primak, A. Schultz, S. Watters, J. Thiel, T. Goggia. Measurer
   PS1 Science Consortium. 1.8-m Ritchey-Chrétien + CCD.
(V06) Catalina Sky Survey-Kuiper  (N32.416847 W110.732550)  US/Arizona.
   Observers T. A. Pruyne, B. M. Africano, E. J. Christensen, G. A. Farneth,
   D. C. Fuls, A. R. Gibbs, A. D. Grauer, H. Groeller, J. A. Johnson, R. A.
   Kowalski, S. M. Larson, G. J. Leonard, R. L. Seaman, F. C. Shelly. 1.55-m
   reflector + CCD.

Orbital elements:  P10OaqH
   Perihelion 2013 Nov 18.124454 +/- 1568 TT =  2:59:12 (JD 2456614.624454)
Epoch 2019 Jun 13.0 TT = JDT 2458647.5   Ju: 0.0122           AutoNEOCP
M 165.45014585 +/- 120              (J2000 ecliptic)
n   0.08138724 +/- 0.000708         Peri.  338.41220 +/- 22
a   5.27349421 +/- 0.0306           Node    41.72956 +/- 0.06
e   0.0338420 +/- 0.00579           Incl.   26.34298 +/- 0.039
P  12.11                   H 14.2   G  0.15   U  8.5  
q 5.09502830 +/- 0.0579    Q 5.45196012 +/- 0.0164
From 12 observations 2019 May 27-June 13; mean residual 0".21
Residuals in arcseconds: 
190527 F51  .07-  .09-    190529 V06  .17+  .28+    190607 568  .01-  .06-    
190527 F51  .03-  .09-    190529 V06  .36+  .24+    190613 695  .13-  .42+    
190527 F51  .03-  .06-    190607 568  .03-  .05-    190613 695  .13-  .48-    
190529 V06  .34-  .19-    190607 568  .04-  .04-    190613 695  .30+  .12+    

Ephemerides (geocentric):
Date (UTC) HH   RA              Dec         delta   r     elong  mag " sig PA
---- -- -- --  -------------   -----------  ------ ------ -----  --- ---- ---
2019 06 15 19  12 19 26.261   +14 31 17.79  5.2764 5.4468  94.3 22.2 .383  98
2019 06 15 20  12 19 26.494   +14 31 04.09  5.2770 5.4468  94.2 22.2 .387  98
2019 06 15 21  12 19 26.729   +14 30 50.39  5.2776 5.4468  94.2 22.2 .392  98
2019 06 15 22  12 19 26.964   +14 30 36.69  5.2783 5.4468  94.1 22.2 .396  98
2019 06 15 23  12 19 27.200   +14 30 22.98  5.2789 5.4468  94.1 22.2 .401  98
2019 06 16 00  12 19 27.438   +14 30 09.26  5.2795 5.4468  94.1 22.2 .405  98
2019 06 16 01  12 19 27.677   +14 29 55.54  5.2801 5.4468  94.0 22.2 .410  98
2019 06 16 02  12 19 27.917   +14 29 41.81  5.2808 5.4468  94.0 22.2 .414  98
2019 06 16 03  12 19 28.158   +14 29 28.08  5.2814 5.4468  94.0 22.2 .419  98
2019 06 16 04  12 19 28.400   +14 29 14.35  5.2820 5.4468  93.9 22.2 .423  98
2019 06 16 05  12 19 28.643   +14 29 00.61  5.2827 5.4468  93.9 22.2 .428  98
2019 06 16 06  12 19 28.887   +14 28 46.86  5.2833 5.4468  93.9 22.2 .432  98
2019 06 16 07  12 19 29.133   +14 28 33.11  5.2839 5.4468  93.8 22.2 .437  98
2019 06 16 08  12 19 29.380   +14 28 19.35  5.2845 5.4468  93.8 22.2 .441  98
2019 06 16 09  12 19 29.627   +14 28 05.59  5.2852 5.4468  93.8 22.2 .446  98
2019 06 16 10  12 19 29.876   +14 27 51.83  5.2858 5.4468  93.7 22.2 .450  98
2019 06 16 11  12 19 30.126   +14 27 38.06  5.2864 5.4468  93.7 22.2 .455  98
2019 06 16 12  12 19 30.377   +14 27 24.28  5.2870 5.4468  93.6 22.2 .460  98
2019 06 16 13  12 19 30.630   +14 27 10.50  5.2877 5.4468  93.6 22.2 .464  98
2019 06 16 14  12 19 30.883   +14 26 56.72  5.2883 5.4468  93.6 22.2 .469  98
2019 06 16 15  12 19 31.137   +14 26 42.93  5.2889 5.4468  93.5 22.2 .474  98
2019 06 16 16  12 19 31.393   +14 26 29.13  5.2896 5.4468  93.5 22.2 .478  98
2019 06 16 17  12 19 31.650   +14 26 15.33  5.2902 5.4468  93.5 22.2 .483  98
2019 06 16 18  12 19 31.908   +14 26 01.53  5.2908 5.4468  93.4 22.2 .488  98
2019 06 16 19  12 19 32.167   +14 25 47.72  5.2914 5.4468  93.4 22.2 .493  98
2019 06 16 20  12 19 32.427   +14 25 33.90  5.2921 5.4468  93.4 22.2 .497  98
2019 06 16 21  12 19 32.688   +14 25 20.09  5.2927 5.4468  93.3 22.2 .502  98
2019 06 16 22  12 19 32.950   +14 25 06.26  5.2933 5.4468  93.3 22.2 .507  98
2019 06 16 23  12 19 33.214   +14 24 52.43  5.2940 5.4468  93.3 22.2 .512  98
2019 06 17 00  12 19 33.478   +14 24 38.60  5.2946 5.4468  93.2 22.2 .516  98
2019 06 17 01  12 19 33.744   +14 24 24.76  5.2952 5.4468  93.2 22.2 .521  98
2019 06 17 02  12 19 34.011   +14 24 10.92  5.2958 5.4468  93.1 22.2 .526  98
2019 06 17 03  12 19 34.279   +14 23 57.07  5.2965 5.4468  93.1 22.2 .531  98
2019 06 17 04  12 19 34.548   +14 23 43.21  5.2971 5.4468  93.1 22.2 .536  98
2019 06 17 05  12 19 34.818   +14 23 29.36  5.2977 5.4468  93.0 22.2 .541  98
2019 06 17 06  12 19 35.089   +14 23 15.49  5.2984 5.4468  93.0 22.2 .545  99
2019 06 17 07  12 19 35.362   +14 23 01.63  5.2990 5.4469  93.0 22.2 .550  99
2019 06 17 08  12 19 35.635   +14 22 47.75  5.2996 5.4469  92.9 22.2 .555  99
2019 06 17 09  12 19 35.910   +14 22 33.88  5.3002 5.4469  92.9 22.2 .560  99
2019 06 17 10  12 19 36.186   +14 22 19.99  5.3009 5.4469  92.9 22.2 .565  99
2019 06 17 11  12 19 36.463   +14 22 06.11  5.3015 5.4469  92.8 22.2 .570  99
2019 06 17 12  12 19 36.741   +14 21 52.22  5.3021 5.4469  92.8 22.2 .575  99
2019 06 17 13  12 19 37.020   +14 21 38.32  5.3028 5.4469  92.8 22.2 .580  99
2019 06 17 14  12 19 37.300   +14 21 24.42  5.3034 5.4469  92.7 22.2 .585  99
2019 06 17 15  12 19 37.582   +14 21 10.51  5.3040 5.4469  92.7 22.2 .590  99
2019 06 17 16  12 19 37.864   +14 20 56.60  5.3046 5.4469  92.6 22.2 .595  99
2019 06 17 17  12 19 38.148   +14 20 42.68  5.3053 5.4469  92.6 22.2 .600  99
2019 06 17 18  12 19 38.432   +14 20 28.76  5.3059 5.4469  92.6 22.2 .605  99